BEIDOU-2 G3

Last updated on Thu Jul 03 2025 00:02:45 GMT+0000 (Coordinated Universal Time)

1 36590U 10024A 25183.58239300 -.00000130 00000+0 00000+0 0 9992 2 36590 3.6878 62.4420 0007878 352.2711 155.4315 1.00272684 55268
UTC large
Height (km)
Speed (km/s)
/
Latitude / Longitude
Inclination (degrees)
Orbital Period (minutes)
Azimuth
Elevation
Range (km)
Doppler Factor

Next 0 passes for location: London (51.5072 / 0.1276)

Sorry there are no passes over London.